Weather History for College Station, TX

Change the Weather History Date:

Saturday, January 12, 2013

  Actual Average Record
Temperature  
Mean Temperature 60 °F 51 °F  
Max Temperature 73 °F 61 °F 80 °F (2000)
Min Temperature 46 °F 41 °F 5 °F (1918)
Degree Days  
Heating Degree Days 4 15  
Month to date heating degree days 180  
Since 1 July heating degree days 816  
Cooling Degree Days 0 0  
Month to date cooling degree days 0  
Year to date cooling degree days 0  
Growing Degree Days 10 (Base 50)    
Moisture  
Dew Point 65 °F    
Average Humidity 90    
Maximum Humidity 100    
Minimum Humidity 77    
Precipitation  
Precipitation 0.03 in 0.10 in 1.67 in (1937)
Month to date precipitation 1.22  
Year to date precipitation 1.22  
Sea Level Pressure  
Sea Level Pressure 29.78 in    
Wind  
Wind Speed 11 mph (South)    
Max Wind Speed 20 mph    
Max Gust Speed 33 mph    
Visibility 8 miles    
Events Rain    
T = Trace of Precipitation, MM = Missing Value Source: NWS Daily Summary

Daily Weather History Graph

Daily Weather History Graph

Search for Another Location

Airport:

Trip Planner

Search our weather history database for the weather conditions in past years. The results will help you decide how hot, cold, wet, or windy it might be!

Date:

Astronomy

Jan. 12, 2013 Rise Set
Actual Time 7:23 AM CST 5:44 PM CST
Civil Twilight 6:57 AM CST 6:10 PM CST
Nautical Twilight 6:27 AM CST 6:40 PM CST
Astronomical Twilight 5:58 AM CST 7:09 PM CST
Moon 7:50 AM CST (1/12) 7:06 PM CST (1/12)
Length of Visible Light 11h 13m
Length of Day
10h 20m
New Moon, 1% of the Moon is Illuminated
Jan 12
New Moon
Jan 18
First Quarter
Jan 26
Full
Feb 3
Last Quarter
Feb 10
New

Hourly Weather History & Observations

Time (CST) Temp. Windchill Dew Point Humidity Pressure Visibility Wind Dir Wind Speed Gust Speed Precip Events Conditions
12:49 AM 66.2 °F - 66.2 °F 100% 29.85 in 4.0 mi SSE 11.5 mph - N/A   Overcast
12:53 AM 66.9 °F - 66.0 °F 97% 29.84 in 4.0 mi SSE 13.8 mph - N/A   Overcast
1:46 AM 68.0 °F - 66.2 °F 94% 29.85 in 2.0 mi SSE 11.5 mph - N/A   Overcast
1:53 AM 68.0 °F - 66.9 °F 96% 29.84 in 1.8 mi SSE 12.7 mph - N/A   Overcast
2:02 AM 68.0 °F - 66.2 °F 94% 29.85 in 3.0 mi South 8.1 mph - N/A   Overcast
2:53 AM 68.0 °F - 66.9 °F 96% 29.84 in 2.5 mi South 6.9 mph - N/A   Overcast
3:30 AM 68.0 °F - 66.2 °F 94% 29.84 in 1.5 mi South 5.8 mph - 0.00 in Rain Light Rain
3:50 AM 68.0 °F - 68.0 °F 100% 29.83 in 2.5 mi South 4.6 mph - 0.00 in Rain Light Rain
3:53 AM 68.0 °F - 68.0 °F 100% 29.82 in 3.0 mi South 4.6 mph - 0.00 in   Overcast
4:13 AM 68.0 °F - 66.2 °F 94% 29.82 in 4.0 mi SSE 4.6 mph - N/A   Overcast
4:42 AM 69.8 °F - 68.0 °F 94% 29.80 in 6.0 mi SE 4.6 mph - 0.00 in   Overcast
4:53 AM 69.1 °F - 68.0 °F 96% 29.78 in 7.0 mi SE 6.9 mph - 0.00 in   Overcast
5:03 AM 69.8 °F - 68.0 °F 94% 29.80 in 7.0 mi SSE 6.9 mph - N/A   Overcast
5:53 AM 71.6 °F - 69.8 °F 94% 29.80 in 7.0 mi South 9.2 mph - N/A Rain Light Rain
6:02 AM 71.6 °F - 69.8 °F 94% 29.80 in 8.0 mi South 9.2 mph - 0.00 in   Overcast
6:19 AM 71.6 °F - 69.8 °F 94% 29.79 in 7.0 mi SSE 11.5 mph - 0.00 in   Overcast
6:53 AM 71.1 °F - 69.1 °F 93% 29.78 in 8.0 mi SSE 12.7 mph - 0.00 in   Overcast
7:53 AM 72.0 °F - 69.1 °F 91% 29.81 in 9.0 mi South 12.7 mph 20.7 mph 0.00 in   Overcast
8:16 AM 71.6 °F - 69.8 °F 94% 29.81 in 8.0 mi South 16.1 mph - 0.00 in Rain Light Rain
8:53 AM 72.0 °F - 69.1 °F 91% 29.79 in 9.0 mi SSE 18.4 mph - 0.00 in   Overcast
9:30 AM 73.4 °F - 69.8 °F 88% 29.82 in 10.0 mi South 16.1 mph - N/A   Overcast
9:53 AM 72.0 °F - 69.1 °F 91% 29.81 in 7.0 mi South 19.6 mph 27.6 mph 0.00 in Rain Light Rain
10:08 AM 71.6 °F - 69.8 °F 94% 29.81 in 10.0 mi SSE 13.8 mph 23.0 mph 0.00 in   Overcast
10:53 AM 72.0 °F - 69.1 °F 91% 29.79 in 9.0 mi South 15.0 mph 23.0 mph 0.01 in Rain Light Rain
11:53 AM 73.0 °F - 69.1 °F 87% 29.75 in 9.0 mi SSE 17.3 mph - 0.00 in Rain Light Rain
12:53 PM 73.0 °F - 69.1 °F 87% 29.71 in 10.0 mi South 18.4 mph 26.5 mph 0.00 in Rain Light Rain
1:53 PM 73.9 °F - 69.1 °F 85% 29.72 in 10.0 mi South 15.0 mph 24.2 mph 0.00 in   Overcast
2:53 PM 73.9 °F - 69.1 °F 85% 29.70 in 10.0 mi South 11.5 mph - N/A   Overcast
3:39 PM 73.4 °F - 69.8 °F 88% 29.71 in 10.0 mi South 10.4 mph - 0.00 in Rain Light Rain
3:53 PM 73.9 °F - 69.1 °F 85% 29.69 in 10.0 mi South 10.4 mph - 0.00 in   Overcast
4:53 PM 73.0 °F - 69.1 °F 87% 29.69 in 10.0 mi SSE 12.7 mph - N/A   Overcast
5:44 PM 73.4 °F - 69.8 °F 88% 29.69 in 10.0 mi SSE 10.4 mph - N/A   Mostly Cloudy
5:53 PM 73.0 °F - 69.1 °F 87% 29.69 in 10.0 mi South 11.5 mph - N/A   Overcast
6:53 PM 73.4 °F - 69.8 °F 88% 29.72 in 10.0 mi South 6.9 mph - N/A   Overcast
7:53 PM 72.0 °F - 69.1 °F 91% 29.72 in 9.0 mi SSE 8.1 mph - 0.01 in   Overcast
8:08 PM 71.6 °F - 69.8 °F 94% 29.72 in 8.0 mi SSE 9.2 mph - N/A   Overcast
8:31 PM 60.8 °F - 55.4 °F 82% 29.74 in 9.0 mi NW 18.4 mph 27.6 mph N/A   Overcast
8:34 PM 60.8 °F - 53.6 °F 77% 29.75 in 10.0 mi NW 19.6 mph 27.6 mph N/A   Overcast
8:45 PM 57.2 °F - 50.0 °F 77% 29.76 in 10.0 mi NNW 19.6 mph 29.9 mph N/A   Overcast
8:53 PM 55.9 °F - 50.0 °F 80% 29.77 in 10.0 mi NNW 17.3 mph 33.4 mph N/A   Overcast
9:48 PM 51.8 °F - 46.4 °F 82% 29.82 in 10.0 mi NNW 17.3 mph 26.5 mph 0.00 in Rain Light Rain
9:53 PM 52.0 °F - 46.0 °F 80% 29.81 in 10.0 mi NNW 18.4 mph - 0.00 in Rain Light Rain
10:53 PM 48.0 °F - 43.0 °F 83% 29.83 in 10.0 mi NNW 13.8 mph - 0.01 in Rain Light Rain
11:53 PM 46.0 °F 39.6 °F 41.0 °F 83% 29.85 in 10.0 mi NNW 15.0 mph 23.0 mph 0.00 in Rain Light Rain